Time,TemperatureF,DewpointF,PressureIn,WindDirection,WindDirectionDegrees,WindSpeedMPH,WindSpeedGustMPH,Humidity,HourlyPrecipIn,Conditions,Clouds,dailyrainin,SolarRadiationWatts/m^2,SoftwareType,DateUTC
2013-08-26 00:01:00,81.9,68.5,30.18,ESE,122,8.1,8.1,64,0.00,CLR,,0.00,1.0,WeatherDisplay:10.37,2013-08-26 05:01:00,
2013-08-26 00:06:00,81.8,68.4,30.18,ESE,113,10.4,10.4,64,0.00,CLR,,0.00,1.0,WeatherDisplay:10.37,2013-08-26 05:06:00,
2013-08-26 00:11:00,81.7,68.3,30.18,SE,125,8.1,8.1,64,0.00,CLR,,0.00,1.0,WeatherDisplay:10.37,2013-08-26 05:11:00,
2013-08-26 00:16:00,81.6,68.2,30.18,SE,144,5.8,5.8,64,0.00,CLR,,0.00,1.0,WeatherDisplay:10.37,2013-08-26 05:16:00,
2013-08-26 00:21:00,81.5,68.6,30.18,SE,133,5.8,5.8,65,0.00,CLR,,0.00,1.0,WeatherDisplay:10.37,2013-08-26 05:21:00,
2013-08-26 00:26:00,81.4,68.5,30.18,ESE,104,5.8,5.8,65,0.00,CLR,,0.00,1.0,WeatherDisplay:10.37,2013-08-26 05:26:00,
2013-08-26 00:31:00,81.3,68.4,30.18,SSE,167,8.1,8.1,65,0.00,CLR,,0.00,1.0,WeatherDisplay:10.37,2013-08-26 05:31:00,
2013-08-26 00:36:00,81.3,68.4,30.18,SE,138,8.1,8.1,65,0.00,CLR,,0.00,1.0,WeatherDisplay:10.37,2013-08-26 05:36:00,
2013-08-26 00:41:00,81.2,68.3,30.18,ESE,111,6.9,6.9,65,0.00,CLR,,0.00,1.0,WeatherDisplay:10.37,2013-08-26 05:41:00,
2013-08-26 00:46:00,81.2,68.3,30.18,ESE,116,6.9,6.9,65,0.00,CLR,,0.00,1.0,WeatherDisplay:10.37,2013-08-26 05:46:00,
2013-08-26 00:51:00,81.1,68.7,30.18,ESE,119,6.9,6.9,66,0.00,CLR,,0.00,1.0,WeatherDisplay:10.37,2013-08-26 05:51:00,
2013-08-26 00:56:00,81.1,68.7,30.18,East,90,6.9,6.9,66,0.00,CLR,,0.00,1.0,WeatherDisplay:10.37,2013-08-26 05:56:00,
2013-08-26 01:01:00,81.0,68.6,30.18,SE,141,5.8,5.8,66,0.00,CLR,,0.00,1.0,WeatherDisplay:10.37,2013-08-26 06:01:00,
2013-08-26 01:06:00,81.0,68.6,30.18,SE,137,6.9,6.9,66,0.00,CLR,,0.00,1.0,WeatherDisplay:10.37,2013-08-26 06:06:00,
2013-08-26 01:11:00,80.8,68.4,30.18,ESE,107,5.8,5.8,66,0.00,CLR,,0.00,1.0,WeatherDisplay:10.37,2013-08-26 06:11:00,
2013-08-26 01:16:00,80.7,68.7,30.18,SE,125,6.9,6.9,67,0.00,CLR,,0.00,1.0,WeatherDisplay:10.37,2013-08-26 06:16:00,
2013-08-26 01:21:00,80.6,68.6,30.18,SE,137,8.1,8.1,67,0.00,CLR,,0.00,1.0,WeatherDisplay:10.37,2013-08-26 06:21:00,
2013-08-26 01:26:00,80.6,69.1,30.18,SE,142,6.9,6.9,68,0.00,CLR,,0.00,1.0,WeatherDisplay:10.37,2013-08-26 06:26:00,
2013-08-26 01:31:00,80.6,69.1,30.18,SE,138,8.1,8.1,68,0.00,CLR,,0.00,1.0,WeatherDisplay:10.37,2013-08-26 06:31:00,
2013-08-26 01:36:00,80.5,69.4,30.18,SE,133,8.1,8.1,69,0.00,CLR,,0.00,1.0,WeatherDisplay:10.37,2013-08-26 06:36:00,
2013-08-26 01:41:00,80.5,69.8,30.18,SE,142,8.1,8.1,70,0.00,CLR,,0.00,1.0,WeatherDisplay:10.37,2013-08-26 06:41:00,
2013-08-26 01:46:00,80.5,70.2,30.18,SSE,159,9.2,9.2,71,0.00,CLR,,0.00,1.0,WeatherDisplay:10.37,2013-08-26 06:46:00,
2013-08-26 01:51:00,80.6,70.3,30.18,SE,131,9.2,9.2,71,0.00,CLR,,0.00,1.0,WeatherDisplay:10.37,2013-08-26 06:51:00,
2013-08-26 01:56:00,80.6,70.3,30.18,SSE,152,6.9,6.9,71,0.00,CLR,,0.00,1.0,WeatherDisplay:10.37,2013-08-26 06:56:00,
2013-08-26 02:01:00,80.5,70.2,30.18,SE,140,8.1,8.1,71,0.00,CLR,,0.00,1.0,WeatherDisplay:10.37,2013-08-26 07:01:00,
2013-08-26 02:06:00,80.3,70.0,30.18,SE,142,8.1,8.1,71,0.00,CLR,,0.00,1.0,WeatherDisplay:10.37,2013-08-26 07:06:00,
2013-08-26 02:11:00,80.2,69.9,30.18,SSE,158,9.2,9.2,71,0.00,CLR,,0.00,1.0,WeatherDisplay:10.37,2013-08-26 07:11:00,
2013-08-26 02:16:00,80.1,70.3,30.18,SE,141,9.2,9.2,72,0.00,CLR,,0.00,1.0,WeatherDisplay:10.37,2013-08-26 07:16:00,
2013-08-26 02:21:00,80.0,70.6,30.18,SE,137,8.1,8.1,73,0.00,CLR,,0.00,1.0,WeatherDisplay:10.37,2013-08-26 07:21:00,
2013-08-26 02:27:00,80.1,70.7,30.18,SSE,163,9.2,9.2,73,0.00,CLR,,0.00,1.0,WeatherDisplay:10.37,2013-08-26 07:27:00,
2013-08-26 02:32:00,80.0,71.0,30.18,SE,143,9.2,9.2,74,0.00,CLR,,0.00,1.0,WeatherDisplay:10.37,2013-08-26 07:32:00,
2013-08-26 02:37:00,80.0,71.4,30.18,SE,146,6.9,6.9,75,0.00,CLR,,0.00,1.0,WeatherDisplay:10.37,2013-08-26 07:37:00,
2013-08-26 02:42:00,79.9,71.3,30.18,SSE,147,8.1,8.1,75,0.00,CLR,,0.00,0.0,WeatherDisplay:10.37,2013-08-26 07:42:00,
2013-08-26 02:47:00,79.8,71.2,30.18,SE,139,6.9,6.9,75,0.00,CLR,,0.00,1.0,WeatherDisplay:10.37,2013-08-26 07:47:00,
2013-08-26 02:52:00,79.6,71.0,30.18,SSE,157,5.8,5.8,75,0.00,CLR,,0.00,1.0,WeatherDisplay:10.37,2013-08-26 07:52:00,
2013-08-26 02:57:00,79.5,71.3,30.18,SE,144,4.6,4.6,76,0.00,CLR,,0.00,1.0,WeatherDisplay:10.37,2013-08-26 07:57:00,
2013-08-26 03:02:00,79.4,71.2,30.18,SSE,166,4.6,4.6,76,0.00,CLR,,0.00,1.0,WeatherDisplay:10.37,2013-08-26 08:02:00,
2013-08-26 03:07:00,79.2,71.4,30.18,SE,138,4.6,4.6,77,0.00,CLR,,0.00,1.0,WeatherDisplay:10.37,2013-08-26 08:07:00,
2013-08-26 03:12:00,78.9,70.7,30.18,SSE,147,5.8,5.8,76,0.00,CLR,,0.00,1.0,WeatherDisplay:10.37,2013-08-26 08:12:00,
2013-08-26 03:17:00,78.7,70.9,30.18,SSE,157,5.8,5.8,77,0.00,CLR,,0.00,1.0,WeatherDisplay:10.37,2013-08-26 08:17:00,
2013-08-26 03:22:00,78.5,70.7,30.18,SSE,148,4.6,4.6,77,0.00,CLR,,0.00,1.0,WeatherDisplay:10.37,2013-08-26 08:22:00,
2013-08-26 03:27:00,78.4,71.0,30.18,SSE,157,5.8,5.8,78,0.00,CLR,,0.00,1.0,WeatherDisplay:10.37,2013-08-26 08:27:00,
2013-08-26 03:32:00,78.3,70.9,30.18,SSE,151,5.8,5.8,78,0.00,CLR,,0.00,1.0,WeatherDisplay:10.37,2013-08-26 08:32:00,
2013-08-26 03:37:00,78.2,71.2,30.18,South,170,5.8,5.8,79,0.00,CLR,,0.00,1.0,WeatherDisplay:10.37,2013-08-26 08:37:00,
2013-08-26 03:42:00,78.1,71.4,30.18,SSE,154,6.9,6.9,80,0.00,CLR,,0.00,1.0,WeatherDisplay:10.37,2013-08-26 08:42:00,
2013-08-26 03:47:00,77.9,71.2,30.18,SSE,159,4.6,4.6,80,0.00,CLR,,0.00,1.0,WeatherDisplay:10.37,2013-08-26 08:47:00,
2013-08-26 03:52:00,77.8,71.1,30.18,SSE,150,5.8,5.8,80,0.00,CLR,,0.00,1.0,WeatherDisplay:10.37,2013-08-26 08:52:00,
2013-08-26 03:57:00,77.7,71.4,30.18,SSE,154,5.8,5.8,81,0.00,CLR,,0.00,1.0,WeatherDisplay:10.37,2013-08-26 08:57:00,
2013-08-26 04:02:00,77.7,71.4,30.18,SE,146,5.8,5.8,81,0.00,CLR,,0.00,1.0,WeatherDisplay:10.37,2013-08-26 09:02:00,
2013-08-26 04:07:00,77.6,71.7,30.19,South,172,5.8,5.8,82,0.00,CLR,,0.00,1.0,WeatherDisplay:10.37,2013-08-26 09:07:00,
2013-08-26 04:12:00,77.6,71.7,30.19,SSE,155,6.0,6.0,82,0.00,CLR,,0.00,1.0,WeatherDisplay:10.37,2013-08-26 09:12:00,
2013-08-26 04:17:00,77.5,71.6,30.19,SSE,150,4.8,4.8,82,0.00,CLR,,0.00,1.0,WeatherDisplay:10.37,2013-08-26 09:17:00,
2013-08-26 04:22:00,77.5,71.9,30.19,SE,143,6.9,6.9,83,0.00,CLR,,0.00,1.0,WeatherDisplay:10.37,2013-08-26 09:22:00,
2013-08-26 04:27:00,77.5,71.9,30.19,SE,144,6.9,6.9,83,0.00,CLR,,0.00,1.0,WeatherDisplay:10.37,2013-08-26 09:27:00,
2013-08-26 04:32:00,77.4,72.2,30.19,SE,142,6.0,6.0,84,0.00,CLR,,0.00,1.0,WeatherDisplay:10.37,2013-08-26 09:32:00,
2013-08-26 04:37:00,77.2,72.0,30.19,SE,138,6.9,6.9,84,0.00,CLR,,0.00,1.0,WeatherDisplay:10.37,2013-08-26 09:37:00,
2013-08-26 04:42:00,77.1,71.9,30.19,SE,144,6.9,6.9,84,0.00,CLR,,0.00,1.0,WeatherDisplay:10.37,2013-08-26 09:42:00,
2013-08-26 04:47:00,77.1,72.2,30.19,SSE,159,6.9,6.9,85,0.00,CLR,,0.00,1.0,WeatherDisplay:10.37,2013-08-26 09:47:00,
2013-08-26 04:52:00,77.0,72.1,30.19,SE,142,4.6,4.6,85,0.00,CLR,,0.00,1.0,WeatherDisplay:10.37,2013-08-26 09:52:00,
2013-08-26 04:57:00,76.9,72.0,30.19,SSE,155,4.6,4.6,85,0.00,CLR,,0.00,1.0,WeatherDisplay:10.37,2013-08-26 09:57:00,
2013-08-26 05:02:00,76.7,71.8,30.19,SE,136,3.5,3.5,85,0.00,CLR,,0.00,1.0,WeatherDisplay:10.37,2013-08-26 10:02:00,
2013-08-26 05:07:00,76.6,71.7,30.19,SE,125,2.4,2.4,85,0.00,CLR,,0.00,1.0,WeatherDisplay:10.37,2013-08-26 10:07:00,
2013-08-26 05:12:00,76.4,71.6,30.19,ESE,121,2.3,2.5,85,0.00,CLR,,0.00,1.0,WeatherDisplay:10.37,2013-08-26 10:12:00,
2013-08-26 05:17:00,76.3,71.5,30.19,ESE,112,3.5,3.5,85,0.00,CLR,,0.00,1.0,WeatherDisplay:10.37,2013-08-26 10:17:00,
2013-08-26 05:22:00,76.1,71.6,30.19,SE,133,4.6,4.6,86,0.00,CLR,,0.00,1.0,WeatherDisplay:10.37,2013-08-26 10:22:00,
2013-08-26 05:27:00,76.0,71.5,30.19,SE,142,3.5,3.5,86,0.00,CLR,,0.00,1.0,WeatherDisplay:10.37,2013-08-26 10:27:00,
2013-08-26 05:32:00,75.7,71.6,30.19,ESE,118,2.4,2.4,87,0.00,CLR,,0.00,1.0,WeatherDisplay:10.37,2013-08-26 10:32:00,
2013-08-26 05:37:00,75.3,71.2,30.19,ESE,121,3.5,3.5,87,0.00,CLR,,0.00,1.0,WeatherDisplay:10.37,2013-08-26 10:37:00,
2013-08-26 05:42:00,75.1,71.3,30.19,SE,133,3.5,3.5,88,0.00,CLR,,0.00,1.0,WeatherDisplay:10.37,2013-08-26 10:42:00,
2013-08-26 05:47:00,75.0,71.2,30.19,ESE,111,3.5,3.5,88,0.00,CLR,,0.00,1.0,WeatherDisplay:10.37,2013-08-26 10:47:00,
2013-08-26 05:52:00,74.9,71.4,30.19,ESE,111,3.5,3.5,89,0.00,CLR,,0.00,1.0,WeatherDisplay:10.37,2013-08-26 10:52:00,
2013-08-26 05:57:00,74.8,71.3,30.20,East,85,3.5,3.5,89,0.00,CLR,,0.00,1.0,WeatherDisplay:10.37,2013-08-26 10:57:00,
2013-08-26 06:02:00,74.8,71.3,30.20,ESE,103,3.5,3.5,89,0.00,CLR,,0.00,1.0,WeatherDisplay:10.37,2013-08-26 11:02:00,
2013-08-26 06:07:00,74.7,71.2,30.20,ESE,102,2.3,2.3,89,0.00,CLR,,0.00,1.0,WeatherDisplay:10.37,2013-08-26 11:07:00,
2013-08-26 06:12:00,74.6,71.1,30.20,ENE,70,2.7,2.7,89,0.00,CLR,,0.00,1.0,WeatherDisplay:10.37,2013-08-26 11:12:00,
2013-08-26 06:17:00,74.5,71.4,30.20,ENE,73,3.5,3.5,90,0.00,CLR,,0.00,1.0,WeatherDisplay:10.37,2013-08-26 11:17:00,
2013-08-26 06:22:00,74.4,71.3,30.20,ENE,70,3.5,3.5,90,0.00,CLR,,0.00,1.0,WeatherDisplay:10.37,2013-08-26 11:22:00,
2013-08-26 06:27:00,74.3,71.2,30.20,ENE,71,4.6,4.6,90,0.00,OVC,,0.00,1.0,WeatherDisplay:10.37,2013-08-26 11:27:00,
2013-08-26 06:32:00,74.2,71.4,30.20,East,94,5.1,5.1,91,0.00,OVC,,0.00,2.0,WeatherDisplay:10.37,2013-08-26 11:32:00,
2013-08-26 06:37:00,74.2,71.4,30.21,ENE,72,5.8,5.8,91,0.00,OVC,,0.00,2.0,WeatherDisplay:10.37,2013-08-26 11:37:00,
2013-08-26 06:42:00,74.1,71.3,30.21,East,84,5.8,5.8,91,0.00,OVC,,0.00,2.0,WeatherDisplay:10.37,2013-08-26 11:42:00,
2013-08-26 06:47:00,74.0,71.2,30.21,East,84,4.6,4.6,91,0.00,OVC,,0.00,3.0,WeatherDisplay:10.37,2013-08-26 11:47:00,
2013-08-26 06:52:00,73.9,71.4,30.21,ENE,77,5.8,5.8,92,0.00,OVC,,0.00,5.0,WeatherDisplay:10.37,2013-08-26 11:52:00,
2013-08-26 06:57:00,73.8,71.3,30.21,East,88,6.9,6.9,92,0.00,OVC,,0.00,9.0,WeatherDisplay:10.37,2013-08-26 11:57:00,
2013-08-26 07:02:00,73.8,71.3,30.21,East,93,6.9,6.9,92,0.00,OVC,,0.00,21.0,WeatherDisplay:10.37,2013-08-26 12:02:00,
2013-08-26 07:07:00,73.7,71.2,30.21,East,98,6.9,6.9,92,0.00,OVC,,0.00,44.0,WeatherDisplay:10.37,2013-08-26 12:07:00,
2013-08-26 07:12:00,73.7,71.5,30.21,East,93,6.9,6.9,93,0.00,OVC,,0.00,69.0,WeatherDisplay:10.37,2013-08-26 12:12:00,
2013-08-26 07:17:00,73.8,71.6,30.21,East,87,5.8,5.8,93,0.00,OVC,,0.00,78.0,WeatherDisplay:10.37,2013-08-26 12:17:00,
2013-08-26 07:22:00,73.8,71.6,30.22,ENE,78,5.4,5.4,93,0.00,OVC,,0.00,95.0,WeatherDisplay:10.37,2013-08-26 12:22:00,
2013-08-26 07:27:00,74.0,71.8,30.22,East,92,5.8,5.8,93,0.00,OVC,,0.00,146.0,WeatherDisplay:10.37,2013-08-26 12:27:00,
2013-08-26 07:32:00,74.1,71.9,30.22,East,84,5.8,5.8,93,0.00,OVC,,0.00,167.0,WeatherDisplay:10.37,2013-08-26 12:32:00,
2013-08-26 07:37:00,74.4,72.2,30.22,East,98,6.9,6.9,93,0.00,OVC,,0.00,189.0,WeatherDisplay:10.37,2013-08-26 12:37:00,
2013-08-26 07:43:00,74.7,72.5,30.22,ESE,108,5.8,5.8,93,0.00,OVC,,0.00,211.0,WeatherDisplay:10.37,2013-08-26 12:43:00,
2013-08-26 07:48:00,75.0,72.8,30.22,ESE,102,8.1,8.1,93,0.00,OVC,,0.00,222.0,WeatherDisplay:10.37,2013-08-26 12:48:00,
2013-08-26 07:53:00,75.3,72.8,30.22,ESE,103,6.9,6.9,92,0.00,OVC,,0.00,252.0,WeatherDisplay:10.37,2013-08-26 12:53:00,
2013-08-26 07:58:00,75.7,72.9,30.22,ESE,109,8.1,8.1,91,0.00,OVC,,0.00,272.0,WeatherDisplay:10.37,2013-08-26 12:58:00,
2013-08-26 08:03:00,76.1,73.3,30.22,ESE,109,6.3,6.3,91,0.00,OVC,,0.00,290.0,WeatherDisplay:10.37,2013-08-26 13:03:00,
2013-08-26 08:08:00,76.6,73.4,30.22,East,95,9.2,9.2,90,0.00,OVC,,0.00,310.0,WeatherDisplay:10.37,2013-08-26 13:08:00,
2013-08-26 08:13:00,77.1,73.6,30.22,ESE,102,6.9,6.9,89,0.00,OVC,,0.00,326.0,WeatherDisplay:10.37,2013-08-26 13:13:00,
2013-08-26 08:18:00,77.4,73.6,30.22,ESE,116,10.4,10.4,88,0.00,OVC,,0.00,343.0,WeatherDisplay:10.37,2013-08-26 13:18:00,
2013-08-26 08:23:00,77.8,73.6,30.22,ESE,117,6.9,6.9,87,0.00,OVC,,0.00,362.0,WeatherDisplay:10.37,2013-08-26 13:23:00,
2013-08-26 08:28:00,78.1,73.9,30.22,ESE,102,9.2,9.2,87,0.00,OVC,,0.00,378.0,WeatherDisplay:10.37,2013-08-26 13:28:00,
2013-08-26 08:33:00,78.3,73.4,30.22,East,100,8.1,8.1,85,0.00,OVC,,0.00,394.0,WeatherDisplay:10.37,2013-08-26 13:33:00,
2013-08-26 08:38:00,78.7,73.8,30.22,SSE,154,11.5,11.5,85,0.00,OVC,,0.00,411.0,WeatherDisplay:10.37,2013-08-26 13:38:00,
2013-08-26 08:43:00,78.9,73.7,30.22,SE,138,15.0,15.0,84,0.00,OVC,,0.00,426.0,WeatherDisplay:10.37,2013-08-26 13:43:00,
2013-08-26 08:48:00,79.2,73.6,30.22,SSE,158,9.2,9.2,83,0.00,OVC,,0.00,443.0,WeatherDisplay:10.37,2013-08-26 13:48:00,
2013-08-26 08:53:00,79.5,73.5,30.23,SSE,161,15.0,15.0,82,0.00,OVC,,0.00,457.0,WeatherDisplay:10.37,2013-08-26 13:53:00,
2013-08-26 08:58:00,79.8,73.8,30.22,SSE,148,11.5,11.5,82,0.00,OVC,,0.00,473.0,WeatherDisplay:10.37,2013-08-26 13:58:00,
2013-08-26 09:03:00,80.1,73.7,30.23,SE,146,15.6,15.6,81,0.00,OVC,,0.00,488.0,WeatherDisplay:10.37,2013-08-26 14:03:00,
2013-08-26 09:08:00,80.5,73.8,30.23,ESE,117,10.4,10.4,80,0.00,OVC,,0.00,504.0,WeatherDisplay:10.37,2013-08-26 14:08:00,
2013-08-26 09:13:00,80.7,73.6,30.23,ESE,105,12.7,12.7,79,0.00,OVC,,0.00,519.0,WeatherDisplay:10.37,2013-08-26 14:13:00,
2013-08-26 09:18:00,81.1,73.6,30.23,SSE,150,12.7,12.7,78,0.00,OVC,,0.00,531.0,WeatherDisplay:10.37,2013-08-26 14:18:00,
2013-08-26 09:23:00,81.3,73.4,30.23,SE,137,15.0,15.0,77,0.00,OVC,,0.00,549.0,WeatherDisplay:10.37,2013-08-26 14:23:00,
2013-08-26 09:28:00,81.8,73.5,30.23,SE,141,15.0,15.0,76,0.00,OVC,,0.00,563.0,WeatherDisplay:10.37,2013-08-26 14:28:00,
2013-08-26 09:33:00,82.2,73.5,30.23,SSE,148,15.0,15.0,75,0.00,OVC,,0.00,577.0,WeatherDisplay:10.37,2013-08-26 14:33:00,
2013-08-26 09:38:00,82.7,73.6,30.23,SSE,156,12.7,12.7,74,0.00,OVC,,0.00,592.0,WeatherDisplay:10.37,2013-08-26 14:38:00,
2013-08-26 09:43:00,83.0,73.4,30.23,SSE,154,16.1,16.1,73,0.00,OVC,,0.00,608.0,WeatherDisplay:10.37,2013-08-26 14:43:00,
2013-08-26 09:48:00,83.1,73.1,30.23,SSE,159,15.0,15.0,72,0.00,OVC,,0.00,623.0,WeatherDisplay:10.37,2013-08-26 14:48:00,
2013-08-26 09:53:00,83.3,73.3,30.23,SSE,159,15.0,15.0,72,0.00,OVC,,0.00,638.0,WeatherDisplay:10.37,2013-08-26 14:53:00,
2013-08-26 09:58:00,83.8,73.8,30.23,East,85,11.5,11.5,72,0.00,OVC,,0.00,649.0,WeatherDisplay:10.37,2013-08-26 14:58:00,
2013-08-26 10:03:00,83.8,73.0,30.23,SSE,152,16.1,16.1,70,0.00,OVC,,0.00,666.0,WeatherDisplay:10.37,2013-08-26 15:03:00,
2013-08-26 10:08:00,84.0,73.2,30.23,SE,133,15.3,15.3,70,0.00,OVC,,0.00,683.0,WeatherDisplay:10.37,2013-08-26 15:08:00,
2013-08-26 10:13:00,84.5,73.2,30.23,SE,141,15.0,15.0,69,0.00,OVC,,0.00,693.0,WeatherDisplay:10.37,2013-08-26 15:13:00,
2013-08-26 10:18:00,85.0,73.3,30.23,East,96,16.1,16.1,68,0.00,OVC,,0.00,710.0,WeatherDisplay:10.37,2013-08-26 15:18:00,
2013-08-26 10:23:00,85.5,73.3,30.22,SSE,149,16.1,16.1,67,0.00,OVC,,0.00,278.0,WeatherDisplay:10.37,2013-08-26 15:23:00,
2013-08-26 10:28:00,85.7,73.0,30.22,SE,142,13.8,13.8,66,0.00,OVC,,0.00,736.0,WeatherDisplay:10.37,2013-08-26 15:28:00,
2013-08-26 10:33:00,86.0,72.9,30.22,SSE,151,13.8,13.8,65,0.00,OVC,,0.00,745.0,WeatherDisplay:10.37,2013-08-26 15:33:00,
2013-08-26 10:38:00,86.3,72.7,30.22,South,183,15.0,15.0,64,0.00,OVC,,0.00,759.0,WeatherDisplay:10.37,2013-08-26 15:38:00,
2013-08-26 10:43:00,87.3,73.2,30.22,East,99,9.2,9.2,63,0.00,OVC,,0.00,771.0,WeatherDisplay:10.37,2013-08-26 15:43:00,
2013-08-26 10:48:00,87.5,72.9,30.22,ESE,119,13.5,13.5,62,0.00,OVC,,0.00,780.0,WeatherDisplay:10.37,2013-08-26 15:48:00,
2013-08-26 10:53:00,88.1,73.0,30.22,ESE,109,12.7,12.7,61,0.00,OVC,,0.00,792.0,WeatherDisplay:10.37,2013-08-26 15:53:00,
2013-08-26 10:58:00,88.3,72.2,30.23,SE,138,16.1,16.1,59,0.00,OVC,,0.00,800.0,WeatherDisplay:10.37,2013-08-26 15:58:00,
2013-08-26 11:03:00,88.5,72.3,30.22,SSE,150,11.5,11.5,59,0.00,OVC,,0.00,808.0,WeatherDisplay:10.37,2013-08-26 16:03:00,
2013-08-26 11:08:00,89.0,71.8,30.22,SSE,151,17.3,17.3,57,0.00,OVC,,0.00,815.0,WeatherDisplay:10.37,2013-08-26 16:08:00,
2013-08-26 11:13:00,89.3,72.1,30.23,SE,144,16.1,16.1,57,0.00,OVC,,0.00,823.0,WeatherDisplay:10.37,2013-08-26 16:13:00,
2013-08-26 11:18:00,89.5,72.3,30.22,ESE,114,12.7,12.7,57,0.00,OVC,,0.00,830.0,WeatherDisplay:10.37,2013-08-26 16:18:00,
2013-08-26 11:23:00,90.3,72.5,30.22,SE,135,17.3,17.3,56,0.00,OVC,,0.00,840.0,WeatherDisplay:10.37,2013-08-26 16:23:00,
2013-08-26 11:28:00,90.4,72.0,30.22,ESE,122,17.3,17.3,55,0.00,OVC,,0.00,840.0,WeatherDisplay:10.37,2013-08-26 16:28:00,
2013-08-26 11:33:00,90.8,71.9,30.22,SE,142,13.8,13.8,54,0.00,OVC,,0.00,850.0,WeatherDisplay:10.37,2013-08-26 16:33:00,
2013-08-26 11:38:00,91.2,71.7,30.22,SSE,155,16.1,16.1,53,0.00,OVC,,0.00,858.0,WeatherDisplay:10.37,2013-08-26 16:38:00,
2013-08-26 11:43:00,91.3,71.8,30.22,East,100,12.7,12.7,53,0.00,OVC,,0.00,865.0,WeatherDisplay:10.37,2013-08-26 16:43:00,
2013-08-26 11:48:00,91.7,71.6,30.22,SE,144,19.6,19.6,52,0.00,OVC,,0.00,865.0,WeatherDisplay:10.37,2013-08-26 16:48:00,
2013-08-26 11:53:00,92.3,72.1,30.22,SE,144,11.5,11.5,52,0.00,OVC,,0.00,875.0,WeatherDisplay:10.37,2013-08-26 16:53:00,
2013-08-26 11:58:00,92.0,71.3,30.21,ESE,120,23.0,23.0,51,0.00,OVC,,0.00,881.0,WeatherDisplay:10.37,2013-08-26 16:58:00,
2013-08-26 12:03:00,92.1,71.4,30.21,SE,128,10.4,10.4,51,0.00,OVC,,0.00,888.0,WeatherDisplay:10.37,2013-08-26 17:03:00,
2013-08-26 12:08:00,92.5,71.2,30.21,SE,134,15.0,15.0,50,0.00,OVC,,0.00,888.0,WeatherDisplay:10.37,2013-08-26 17:08:00,
2013-08-26 12:13:00,92.5,71.2,30.21,East,95,17.3,17.3,50,0.00,OVC,,0.00,901.0,WeatherDisplay:10.37,2013-08-26 17:13:00,
2013-08-26 12:18:00,92.7,71.3,30.20,ESE,119,12.3,12.3,50,0.00,OVC,,0.00,903.0,WeatherDisplay:10.37,2013-08-26 17:18:00,
2013-08-26 12:23:00,92.5,71.2,30.20,ESE,114,17.3,17.3,50,0.00,OVC,,0.00,913.0,WeatherDisplay:10.37,2013-08-26 17:23:00,
2013-08-26 12:28:00,92.6,71.2,30.20,SSE,155,18.4,18.4,50,0.00,OVC,,0.00,901.0,WeatherDisplay:10.37,2013-08-26 17:28:00,
2013-08-26 12:33:00,92.3,71.0,30.20,East,98,15.0,15.0,50,0.00,OVC,,0.00,905.0,WeatherDisplay:10.37,2013-08-26 17:33:00,
2013-08-26 12:38:00,93.4,70.2,30.20,ESE,119,12.7,12.7,47,0.00,OVC,,0.00,906.0,WeatherDisplay:10.37,2013-08-26 17:38:00,
2013-08-26 12:43:00,93.6,70.3,30.20,SE,126,19.6,19.6,47,0.00,OVC,,0.00,926.0,WeatherDisplay:10.37,2013-08-26 17:43:00,
2013-08-26 12:48:00,93.8,71.7,30.20,ESE,113,11.5,11.5,49,0.00,OVC,,0.00,393.0,WeatherDisplay:10.37,2013-08-26 17:48:00,
2013-08-26 12:53:00,92.7,71.3,30.19,SE,144,15.0,15.0,50,0.00,OVC,,0.00,925.0,WeatherDisplay:10.37,2013-08-26 17:53:00,
2013-08-26 12:58:00,93.7,70.4,30.19,ESE,112,21.9,21.9,47,0.00,CLR,,0.00,915.0,WeatherDisplay:10.37,2013-08-26 17:58:00,
2013-08-26 13:03:00,94.1,70.8,30.19,SE,132,11.5,11.5,47,0.00,CLR,,0.00,940.0,WeatherDisplay:10.37,2013-08-26 18:03:00,
2013-08-26 13:08:00,94.5,69.9,30.19,SE,140,18.4,18.4,45,0.00,CLR,,0.00,952.0,WeatherDisplay:10.37,2013-08-26 18:08:00,
2013-08-26 13:13:00,94.7,70.7,30.18,SE,126,13.8,13.8,46,0.00,CLR,,0.00,931.0,WeatherDisplay:10.37,2013-08-26 18:13:00,
2013-08-26 13:19:00,95.2,69.2,30.18,SSE,163,16.1,16.1,43,0.00,CLR,,0.00,925.0,WeatherDisplay:10.37,2013-08-26 18:19:00,
2013-08-26 13:24:00,94.8,68.8,30.18,SE,146,23.1,23.1,43,0.00,CLR,,0.00,925.0,WeatherDisplay:10.37,2013-08-26 18:24:00,
2013-08-26 13:29:00,94.4,68.5,30.17,SE,139,24.2,24.2,43,0.00,CLR,,0.00,920.0,WeatherDisplay:10.37,2013-08-26 18:29:00,
2013-08-26 13:34:00,94.4,69.1,30.17,SE,133,23.0,23.0,44,0.00,CLR,,0.00,930.0,WeatherDisplay:10.37,2013-08-26 18:34:00,
2013-08-26 13:39:00,95.2,69.2,30.17,SSE,153,18.4,18.4,43,0.00,CLR,,0.00,952.0,WeatherDisplay:10.37,2013-08-26 18:39:00,
2013-08-26 13:44:00,95.9,69.1,30.17,SSE,162,17.3,17.3,42,0.00,CLR,,0.00,921.0,WeatherDisplay:10.37,2013-08-26 18:44:00,
2013-08-26 13:49:00,95.2,67.8,30.17,ESE,107,18.9,18.9,41,0.00,CLR,,0.00,901.0,WeatherDisplay:10.37,2013-08-26 18:49:00,
2013-08-26 13:54:00,96.0,68.5,30.17,ESE,122,21.9,21.9,41,0.00,CLR,,0.00,898.0,WeatherDisplay:10.37,2013-08-26 18:54:00,
2013-08-26 13:59:00,96.4,68.1,30.16,South,178,21.9,21.9,40,0.00,CLR,,0.00,895.0,WeatherDisplay:10.37,2013-08-26 18:59:00,
2013-08-26 14:04:00,96.9,68.6,30.16,SSE,162,17.1,17.1,40,0.00,CLR,,0.00,892.0,WeatherDisplay:10.37,2013-08-26 19:04:00,
2013-08-26 14:09:00,95.9,67.7,30.16,East,100,11.5,11.5,40,0.00,CLR,,0.00,883.0,WeatherDisplay:10.37,2013-08-26 19:09:00,
2013-08-26 14:14:00,96.7,66.9,30.16,ESE,114,19.6,19.6,38,0.00,CLR,,0.00,883.0,WeatherDisplay:10.37,2013-08-26 19:14:00,
2013-08-26 14:19:00,96.5,67.5,30.15,ESE,120,17.3,17.3,39,0.00,CLR,,0.00,877.0,WeatherDisplay:10.37,2013-08-26 19:19:00,
2013-08-26 14:24:00,97.2,67.4,30.15,SE,145,16.1,16.1,38,0.00,CLR,,0.00,873.0,WeatherDisplay:10.37,2013-08-26 19:24:00,
2013-08-26 14:29:00,96.7,66.1,30.15,SSE,148,23.0,23.0,37,0.00,CLR,,0.00,866.0,WeatherDisplay:10.37,2013-08-26 19:29:00,
2013-08-26 14:34:00,96.5,67.5,30.15,SSE,153,13.8,13.8,39,0.00,CLR,,0.00,863.0,WeatherDisplay:10.37,2013-08-26 19:34:00,
2013-08-26 14:39:00,96.7,68.4,30.14,SE,125,19.6,19.6,40,0.00,CLR,,0.00,876.0,WeatherDisplay:10.37,2013-08-26 19:39:00,
2013-08-26 14:44:00,97.5,67.6,30.14,SE,125,23.0,23.0,38,0.00,CLR,,0.00,852.0,WeatherDisplay:10.37,2013-08-26 19:44:00,
2013-08-26 14:49:00,97.5,66.9,30.14,ESE,121,18.4,18.4,37,0.00,CLR,,0.00,843.0,WeatherDisplay:10.37,2013-08-26 19:49:00,
2013-08-26 14:54:00,96.6,67.6,30.14,SE,129,19.6,19.6,39,0.00,CLR,,0.00,877.0,WeatherDisplay:10.37,2013-08-26 19:54:00,
2013-08-26 14:59:00,96.5,66.7,30.14,ESE,110,20.7,20.7,38,0.00,CLR,,0.00,726.0,WeatherDisplay:10.37,2013-08-26 19:59:00,
2013-08-26 15:04:00,95.5,65.9,30.14,ENE,70,17.3,17.3,38,0.00,CLR,,0.00,870.0,WeatherDisplay:10.37,2013-08-26 20:04:00,
2013-08-26 15:09:00,95.9,65.4,30.14,East,97,21.9,21.9,37,0.00,OVC,,0.00,140.0,WeatherDisplay:10.37,2013-08-26 20:09:00,
2013-08-26 15:14:00,95.5,65.9,30.13,ESE,114,18.4,18.4,38,0.00,CLR,,0.00,851.0,WeatherDisplay:10.37,2013-08-26 20:14:00,
2013-08-26 15:19:00,96.9,65.5,30.13,SSE,164,23.0,23.0,36,0.00,CLR,,0.00,831.0,WeatherDisplay:10.37,2013-08-26 20:19:00,
2013-08-26 15:24:00,98.0,67.3,30.13,ESE,106,13.8,13.8,37,0.00,CLR,,0.00,841.0,WeatherDisplay:10.37,2013-08-26 20:24:00,
2013-08-26 15:29:00,97.5,66.1,30.12,ENE,63,15.0,15.0,36,0.00,OVC,,0.00,149.0,WeatherDisplay:10.37,2013-08-26 20:29:00,
2013-08-26 15:34:00,96.4,66.7,30.12,ENE,75,11.5,11.5,38,0.00,CLR,,0.00,818.0,WeatherDisplay:10.37,2013-08-26 20:34:00,
2013-08-26 15:39:00,96.5,66.7,30.12,SE,125,23.0,23.0,38,0.00,CLR,,0.00,807.0,WeatherDisplay:10.37,2013-08-26 20:39:00,
2013-08-26 15:44:00,97.3,67.4,30.12,East,95,12.7,12.7,38,0.00,CLR,,0.00,822.0,WeatherDisplay:10.37,2013-08-26 20:44:00,
2013-08-26 15:49:00,96.4,65.9,30.12,ESE,114,23.0,23.0,37,0.00,OVC,,0.00,158.0,WeatherDisplay:10.37,2013-08-26 20:49:00,
2013-08-26 15:54:00,95.1,65.5,30.12,ESE,104,13.8,13.8,38,0.00,CLR,,0.00,793.0,WeatherDisplay:10.37,2013-08-26 20:54:00,
2013-08-26 15:59:00,96.3,66.6,30.11,ESE,122,9.2,9.2,38,0.00,CLR,,0.00,794.0,WeatherDisplay:10.37,2013-08-26 20:59:00,
2013-08-26 16:04:00,97.4,65.2,30.12,SE,144,18.4,18.4,35,0.00,CLR,,0.00,781.0,WeatherDisplay:10.37,2013-08-26 21:04:00,
2013-08-26 16:09:00,97.6,66.1,30.11,ESE,120,13.8,13.8,36,0.00,CLR,,0.00,735.0,WeatherDisplay:10.37,2013-08-26 21:09:00,
2013-08-26 16:14:00,97.2,65.0,30.11,SSE,152,31.1,31.1,35,0.00,CLR,,0.00,736.0,WeatherDisplay:10.37,2013-08-26 21:14:00,
2013-08-26 16:19:00,97.4,64.3,30.11,SE,127,13.8,13.8,34,0.00,CLR,,0.00,727.0,WeatherDisplay:10.37,2013-08-26 21:19:00,
2013-08-26 16:24:00,96.9,64.7,30.11,SSE,156,17.3,17.3,35,0.00,CLR,,0.00,744.0,WeatherDisplay:10.37,2013-08-26 21:24:00,
2013-08-26 16:29:00,97.5,64.4,30.11,SE,129,18.4,18.4,34,0.00,CLR,,0.00,748.0,WeatherDisplay:10.37,2013-08-26 21:29:00,
2013-08-26 16:34:00,97.5,64.4,30.04,SE,134,17.3,17.3,34,0.00,OVC,,0.00,152.0,WeatherDisplay:10.37,2013-08-26 21:34:00,
2013-08-26 16:39:00,97.2,65.0,30.10,East,97,13.8,13.8,35,0.00,FEW,,0.00,296.0,WeatherDisplay:10.37,2013-08-26 21:39:00,
2013-08-26 16:44:00,97.3,65.1,30.06,ESE,103,13.8,13.8,35,0.00,OVC,,0.00,333.0,WeatherDisplay:10.37,2013-08-26 21:44:00,
2013-08-26 16:49:00,96.6,65.3,30.10,SE,132,16.1,16.1,36,0.00,OVC,,0.00,153.0,WeatherDisplay:10.37,2013-08-26 21:49:00,
2013-08-26 16:54:00,96.2,64.1,30.10,SE,133,10.4,10.4,35,0.00,OVC,,0.00,356.0,WeatherDisplay:10.37,2013-08-26 21:54:00,
2013-08-26 16:59:00,95.7,63.7,30.10,ESE,112,12.7,12.7,35,0.00,FEW,,0.00,669.0,WeatherDisplay:10.37,2013-08-26 21:59:00,
2013-08-26 17:04:00,96.4,64.3,30.10,ENE,67,9.2,9.2,35,0.00,FEW,,0.00,669.0,WeatherDisplay:10.37,2013-08-26 22:04:00,
2013-08-26 17:09:00,95.9,64.7,30.10,East,82,25.3,25.3,36,0.00,OVC,,0.00,177.0,WeatherDisplay:10.37,2013-08-26 22:09:00,
2013-08-26 17:14:00,95.0,63.9,30.10,ESE,105,21.9,21.9,36,0.00,OVC,,0.00,163.0,WeatherDisplay:10.37,2013-08-26 22:14:00,
2013-08-26 17:19:00,94.5,64.2,30.10,ESE,108,17.3,17.3,37,0.00,SCT,,0.00,551.0,WeatherDisplay:10.37,2013-08-26 22:19:00,
2013-08-26 17:24:00,94.5,64.2,30.10,East,86,17.3,17.3,37,0.00,OVC,,0.00,143.0,WeatherDisplay:10.37,2013-08-26 22:24:00,
2013-08-26 17:29:00,94.1,63.9,30.10,ESE,108,10.4,10.4,37,0.00,OVC,,0.00,502.0,WeatherDisplay:10.37,2013-08-26 22:29:00,
2013-08-26 17:34:00,95.0,64.6,30.11,South,171,10.4,10.4,37,0.00,SCT,,0.00,572.0,WeatherDisplay:10.37,2013-08-26 22:34:00,
2013-08-26 17:39:00,96.2,65.7,30.12,ESE,105,18.4,18.4,37,0.00,SCT,,0.00,322.0,WeatherDisplay:10.37,2013-08-26 22:39:00,
2013-08-26 17:44:00,95.6,65.2,30.11,East,101,15.0,15.0,37,0.00,OVC,,0.00,124.0,WeatherDisplay:10.37,2013-08-26 22:44:00,
2013-08-26 17:49:00,94.9,64.6,30.03,SE,127,16.1,16.1,37,0.00,OVC,,0.00,134.0,WeatherDisplay:10.37,2013-08-26 22:49:00,
2013-08-26 17:54:00,94.6,64.3,30.10,ESE,119,12.7,12.7,37,0.00,OVC,,0.00,163.0,WeatherDisplay:10.37,2013-08-26 22:54:00,
2013-08-26 17:59:00,95.0,64.6,30.11,ESE,121,13.8,13.8,37,0.00,BKN,,0.00,448.0,WeatherDisplay:10.37,2013-08-26 22:59:00,
2013-08-26 18:04:00,95.2,64.8,30.12,ESE,114,16.1,16.1,37,0.00,OVC,,0.00,105.0,WeatherDisplay:10.37,2013-08-26 23:04:00,
2013-08-26 18:09:00,94.5,64.2,30.04,ESE,109,12.7,12.7,37,0.00,OVC,,0.00,80.0,WeatherDisplay:10.37,2013-08-26 23:09:00,
2013-08-26 18:14:00,93.8,64.3,30.10,ESE,120,9.2,9.2,38,0.00,OVC,,0.00,87.0,WeatherDisplay:10.37,2013-08-26 23:14:00,
2013-08-26 18:19:00,93.4,64.0,30.10,SE,125,13.8,13.8,38,0.00,OVC,,0.00,147.0,WeatherDisplay:10.37,2013-08-26 23:19:00,
2013-08-26 18:24:00,93.6,64.9,30.12,SSE,150,12.9,13.7,39,0.00,OVC,,0.00,176.0,WeatherDisplay:10.37,2013-08-26 23:24:00,
2013-08-26 18:29:00,93.7,65.7,30.11,SSE,162,18.4,18.4,40,0.00,OVC,,0.00,141.0,WeatherDisplay:10.37,2013-08-26 23:29:00,
2013-08-26 18:34:00,93.6,65.6,30.10,South,183,12.7,12.7,40,0.00,OVC,,0.00,128.0,WeatherDisplay:10.37,2013-08-26 23:34:00,
2013-08-26 18:39:00,93.6,65.6,30.10,SSE,157,16.1,16.1,40,0.00,OVC,,0.00,196.0,WeatherDisplay:10.37,2013-08-26 23:39:00,
2013-08-26 18:44:00,93.7,65.7,30.11,SE,145,24.2,24.2,40,0.00,OVC,,0.00,204.0,WeatherDisplay:10.37,2013-08-26 23:44:00,
2013-08-26 18:49:00,93.5,65.6,30.10,SE,143,12.7,12.7,40,0.00,OVC,,0.00,62.0,WeatherDisplay:10.37,2013-08-26 23:49:00,
2013-08-26 18:54:00,93.1,65.2,30.10,SSE,149,15.0,15.0,40,0.00,OVC,,0.00,50.0,WeatherDisplay:10.37,2013-08-26 23:54:00,
2013-08-26 18:59:00,92.9,66.4,30.11,SE,137,12.7,12.7,42,0.00,OVC,,0.00,48.0,WeatherDisplay:10.37,2013-08-26 23:59:00,
2013-08-26 19:05:00,92.5,66.1,30.11,SSE,159,16.1,16.1,42,0.00,OVC,,0.00,47.0,WeatherDisplay:10.37,2013-08-27 00:05:00,
2013-08-26 19:10:00,92.1,65.7,30.11,SE,145,11.5,11.5,42,0.00,OVC,,0.00,41.0,WeatherDisplay:10.37,2013-08-27 00:10:00,
2013-08-26 19:15:00,91.8,65.4,30.11,SSE,154,12.7,12.7,42,0.00,OVC,,0.00,39.0,WeatherDisplay:10.37,2013-08-27 00:15:00,
2013-08-26 19:20:00,91.7,66.0,30.11,SE,132,11.5,11.5,43,0.00,OVC,,0.00,68.0,WeatherDisplay:10.37,2013-08-27 00:20:00,
2013-08-26 19:25:00,91.5,65.8,30.11,SSE,155,10.4,10.4,43,0.00,OVC,,0.00,56.0,WeatherDisplay:10.37,2013-08-27 00:25:00,
2013-08-26 19:30:00,91.3,65.0,30.11,SSE,148,11.5,11.5,42,0.00,OVC,,0.00,38.0,WeatherDisplay:10.37,2013-08-27 00:30:00,
2013-08-26 19:35:00,91.1,64.8,30.11,SE,141,9.2,9.2,42,0.00,OVC,,0.00,56.0,WeatherDisplay:10.37,2013-08-27 00:35:00,
2013-08-26 19:40:00,91.0,65.4,30.11,SSE,148,9.2,9.2,43,0.00,OVC,,0.00,20.0,WeatherDisplay:10.37,2013-08-27 00:40:00,
2013-08-26 19:45:00,90.8,65.2,30.11,SE,138,9.2,9.2,43,0.00,OVC,,0.00,19.0,WeatherDisplay:10.37,2013-08-27 00:45:00,
2013-08-26 19:50:00,90.5,65.0,30.11,SSE,150,6.0,10.0,43,0.00,OVC,,0.00,13.0,WeatherDisplay:10.37,2013-08-27 00:50:00,
2013-08-26 19:55:00,90.3,65.4,30.11,SSE,158,8.1,8.1,44,0.00,OVC,,0.00,9.0,WeatherDisplay:10.37,2013-08-27 00:55:00,
2013-08-26 20:00:00,90.0,65.8,30.11,SSE,148,7.0,9.0,45,0.00,CLR,,0.00,0.0,WeatherDisplay:10.37,2013-08-27 01:00:00,
2013-08-26 20:05:00,89.6,65.4,30.11,SSE,148,6.0,9.0,45,0.00,CLR,,0.00,0.0,WeatherDisplay:10.37,2013-08-27 01:05:00,
2013-08-26 20:10:00,89.4,65.9,30.11,SSE,150,8.1,8.1,46,0.00,CLR,,0.00,2.0,WeatherDisplay:10.37,2013-08-27 01:10:00,
2013-08-26 20:15:00,89.1,66.2,30.11,SE,144,6.0,10.0,47,0.00,CLR,,0.00,0.0,WeatherDisplay:10.37,2013-08-27 01:15:00,
2013-08-26 20:20:00,88.8,66.6,30.11,ESE,120,6.9,6.9,48,0.00,CLR,,0.00,2.0,WeatherDisplay:10.37,2013-08-27 01:20:00,
2013-08-26 20:25:00,88.4,66.2,30.11,SE,142,8.1,8.1,48,0.00,CLR,,0.00,2.0,WeatherDisplay:10.37,2013-08-27 01:25:00,
2013-08-26 20:30:00,88.0,65.9,30.11,SE,138,5.0,8.0,48,0.00,CLR,,0.00,0.0,WeatherDisplay:10.37,2013-08-27 01:30:00,
2013-08-26 20:35:00,87.8,65.6,30.11,SE,137,7.0,8.0,48,0.00,CLR,,0.00,0.0,WeatherDisplay:10.37,2013-08-27 01:35:00,
2013-08-26 20:40:00,87.5,66.0,30.11,SE,145,9.2,9.2,49,0.00,CLR,,0.00,1.0,WeatherDisplay:10.37,2013-08-27 01:40:00,
2013-08-26 20:45:00,87.3,67.0,30.12,SSE,159,13.0,21.0,51,0.00,CLR,,0.00,1.0,WeatherDisplay:10.37,2013-08-27 01:45:00,
2013-08-26 20:50:00,87.0,69.9,30.12,South,181,20.7,20.7,57,0.00,CLR,,0.00,1.0,WeatherDisplay:10.37,2013-08-27 01:50:00,
2013-08-26 20:55:00,86.7,70.7,30.12,SSW,192,17.3,17.3,59,0.00,CLR,,0.00,1.0,WeatherDisplay:10.37,2013-08-27 01:55:00,
2013-08-26 21:00:00,86.4,70.9,30.12,South,176,14.1,14.1,60,0.00,CLR,,0.00,0.0,WeatherDisplay:10.37,2013-08-27 02:00:00,
2013-08-26 21:05:00,86.0,71.0,30.13,SSE,163,12.7,12.7,61,0.00,CLR,,0.00,1.0,WeatherDisplay:10.37,2013-08-27 02:05:00,
2013-08-26 21:10:00,85.6,71.1,30.13,SSE,151,20.7,20.7,62,0.00,CLR,,0.00,1.0,WeatherDisplay:10.37,2013-08-27 02:10:00,
2013-08-26 21:15:00,85.4,71.4,30.13,South,172,10.0,21.0,63,0.00,CLR,,0.00,1.0,WeatherDisplay:10.37,2013-08-27 02:15:00,
2013-08-26 21:20:00,85.1,71.5,30.13,SSE,167,13.8,13.8,64,0.00,CLR,,0.00,1.0,WeatherDisplay:10.37,2013-08-27 02:20:00,
2013-08-26 21:25:00,84.8,71.7,30.13,South,169,13.0,22.0,65,0.00,CLR,,0.00,0.0,WeatherDisplay:10.37,2013-08-27 02:25:00,
2013-08-26 21:30:00,84.6,72.0,30.13,SSE,164,16.1,16.1,66,0.00,CLR,,0.00,1.0,WeatherDisplay:10.37,2013-08-27 02:30:00,
2013-08-26 21:35:00,84.4,71.8,30.13,SSE,162,11.5,11.5,66,0.00,CLR,,0.00,1.0,WeatherDisplay:10.37,2013-08-27 02:35:00,
2013-08-26 21:40:00,84.1,72.0,30.13,SSE,160,8.0,16.0,67,0.00,CLR,,0.00,0.0,WeatherDisplay:10.37,2013-08-27 02:40:00,
2013-08-26 21:45:00,83.9,71.8,30.13,SSE,162,6.0,12.0,67,0.00,CLR,,0.00,1.0,WeatherDisplay:10.37,2013-08-27 02:45:00,
2013-08-26 21:50:00,83.7,72.0,30.13,South,170,9.2,9.2,68,0.00,CLR,,0.00,1.0,WeatherDisplay:10.37,2013-08-27 02:50:00,
2013-08-26 21:55:00,83.6,71.9,30.13,South,175,6.0,10.0,68,0.00,CLR,,0.00,0.0,WeatherDisplay:10.37,2013-08-27 02:55:00,
2013-08-26 22:00:00,83.3,72.1,30.13,SSW,199,9.2,9.2,69,0.00,CLR,,0.00,1.0,WeatherDisplay:10.37,2013-08-27 03:00:00,
2013-08-26 22:05:00,83.0,71.8,30.13,South,183,11.5,11.5,69,0.00,CLR,,0.00,1.0,WeatherDisplay:10.37,2013-08-27 03:05:00,
2013-08-26 22:10:00,82.8,72.0,30.13,South,182,11.5,11.5,70,0.00,CLR,,0.00,1.0,WeatherDisplay:10.37,2013-08-27 03:10:00,
2013-08-26 22:15:00,82.6,72.2,30.13,South,175,11.5,11.5,71,0.00,CLR,,0.00,1.0,WeatherDisplay:10.37,2013-08-27 03:15:00,
2013-08-26 22:20:00,82.4,72.0,30.13,South,181,7.0,10.0,71,0.00,CLR,,0.00,1.0,WeatherDisplay:10.37,2013-08-27 03:20:00,
2013-08-26 22:25:00,82.1,72.2,30.13,South,180,8.0,14.0,72,0.00,CLR,,0.00,1.0,WeatherDisplay:10.37,2013-08-27 03:25:00,
2013-08-26 22:30:00,82.0,72.1,30.13,SSW,207,9.2,9.2,72,0.00,CLR,,0.00,1.0,WeatherDisplay:10.37,2013-08-27 03:30:00,
2013-08-26 22:35:00,81.8,72.3,30.13,South,179,7.0,15.0,73,0.00,CLR,,0.00,0.0,WeatherDisplay:10.37,2013-08-27 03:35:00,
2013-08-26 22:40:00,81.7,72.2,30.13,South,179,8.0,13.0,73,0.00,CLR,,0.00,1.0,WeatherDisplay:10.37,2013-08-27 03:40:00,
2013-08-26 22:45:00,81.6,72.5,30.14,South,179,8.0,18.0,74,0.00,CLR,,0.00,1.0,WeatherDisplay:10.37,2013-08-27 03:45:00,
2013-08-26 22:50:00,81.5,72.4,30.14,SSE,166,12.7,12.7,74,0.00,CLR,,0.00,1.0,WeatherDisplay:10.37,2013-08-27 03:50:00,
2013-08-26 22:55:00,81.5,72.4,30.14,South,176,9.0,15.0,74,0.00,CLR,,0.00,1.0,WeatherDisplay:10.37,2013-08-27 03:55:00,
2013-08-26 23:00:00,81.4,72.7,30.14,South,177,9.0,15.0,75,0.00,CLR,,0.00,0.0,WeatherDisplay:10.37,2013-08-27 04:00:00,
2013-08-26 23:01:00,81.4,72.7,30.14,South,173,12.7,12.7,75,0.00,CLR,,0.00,1.0,WeatherDisplay:10.37,2013-08-27 04:01:00,
2013-08-26 23:06:00,81.3,72.6,30.14,South,173,12.0,12.0,75,0.00,CLR,,0.00,1.0,WeatherDisplay:10.37,2013-08-27 04:06:00,
2013-08-26 23:11:00,81.2,72.9,30.14,South,170,10.4,10.4,76,0.00,CLR,,0.00,1.0,WeatherDisplay:10.37,2013-08-27 04:11:00,
2013-08-26 23:16:00,81.0,72.7,30.14,South,178,14.7,14.7,76,0.00,CLR,,0.00,1.0,WeatherDisplay:10.37,2013-08-27 04:16:00,
2013-08-26 23:21:00,80.9,73.0,30.14,SSE,160,17.3,17.3,77,0.00,CLR,,0.00,2.0,WeatherDisplay:10.37,2013-08-27 04:21:00,
2013-08-26 23:26:00,80.8,72.9,30.14,South,178,17.3,17.3,77,0.00,CLR,,0.00,1.0,WeatherDisplay:10.37,2013-08-27 04:26:00,
2013-08-26 23:31:00,80.6,72.7,30.14,SSW,205,13.8,13.8,77,0.00,CLR,,0.00,1.0,WeatherDisplay:10.37,2013-08-27 04:31:00,
2013-08-26 23:36:00,80.5,72.6,30.14,SSW,193,16.1,16.1,77,0.00,CLR,,0.00,1.0,WeatherDisplay:10.37,2013-08-27 04:36:00,
2013-08-26 23:41:00,80.3,72.4,30.14,SSE,166,12.7,12.7,77,0.00,CLR,,0.00,1.0,WeatherDisplay:10.37,2013-08-27 04:41:00,
2013-08-26 23:46:00,80.2,72.3,30.14,South,176,11.5,11.5,77,0.00,CLR,,0.00,1.0,WeatherDisplay:10.37,2013-08-27 04:46:00,
2013-08-26 23:51:00,80.1,72.6,30.14,South,183,8.1,8.1,78,0.00,CLR,,0.00,1.0,WeatherDisplay:10.37,2013-08-27 04:51:00,
2013-08-26 23:56:00,80.0,72.5,30.14,SSE,155,4.6,4.6,78,0.00,CLR,,0.00,1.0,WeatherDisplay:10.37,2013-08-27 04:56:00,